QPF
0.00 0.00 0.00 0.00 0.00 0.00 0.00 0.00 0.00 0.00 0.00 0.00 0.00 0.00 0.00 0.00 0.00 0.00 0.00 0.00 0.00 0.00 0.00 0.00 0.00 0.00 0.02 0.01 0.07 0.03 0.00 0.00 0.00 0.00 0.00 0.00 0.00 0.00 0.00 0.00 0.00 0.00 0.00 0.00 0.00
0.00 0.00 0.00 0.00 0.00 0.00 0.00 0.00 0.00 0.00 0.00 0.00 0.00 0.00 0.00 0.00 0.00 0.00 0.00 0.00 0.00 0.00 0.00 0.00 0.00 0.02 0.07 0.01 0.02 0.01 0.00 0.00 0.00 0.00 0.00 0.00 0.00 0.00 0.00 0.00 0.00 0.00 0.00 0.00 0.00
0.00 0.00 0.00 0.00 0.00 0.00 0.00 0.00 0.00 0.00 0.00 0.00 0.00 0.00 0.00 0.00 0.00 0.00 0.00 0.00 0.00 0.00 0.00 0.00 0.00 0.08 0.05 0.00 0.00 0.00 0.00 0.00 0.00 0.00 0.00 0.00 0.00 0.00 0.01 0.00 0.00 0.00 0.00 0.00 0.00
0.00 0.00 0.00 0.00 0.00 0.00 0.00 0.00 0.00 0.00 0.00 0.00 0.00 0.00 0.00 0.00 0.00 0.00 0.00 0.00 0.00 0.00 0.00 0.00 0.00 0.01 0.00 0.00 0.02 0.01 0.00 0.00 0.00 0.00 0.00 0.00 0.00 0.00 0.00 0.00 0.00 0.00 0.00 0.00 0.00
0.00 0.00 0.00 0.00 0.00 0.00 0.00 0.00 0.00 0.00 0.00 0.00 0.00 0.00 0.00 0.00 0.00 0.00 0.00 0.00 0.00 0.00 0.00 0.00 0.00 0.00 0.00 0.02 0.10 0.00 0.00 0.00 0.00 0.00 0.00 0.00 0.00 0.00 0.00 0.00 0.00 0.00 0.00 0.00 0.00
0.00 0.00 0.00 0.00 0.00 0.00 0.00 0.00 0.00 0.00 0.00 0.00 0.00 0.00 0.00 0.00 0.00 0.00 0.00 0.00 0.00 0.00 0.00 0.00 0.00 0.00 0.00 0.00 0.07 0.00 0.00 0.00 0.00 0.00 0.00 0.00 0.00 0.00 0.00 0.00 0.00 0.00 0.00 0.00 0.00
0.00 0.00 0.00 0.00 0.00 0.00 0.00 0.00 0.00 0.00 0.00 0.00 0.00 0.00 0.00 0.00 0.00 0.00 0.00 0.00 0.00 0.00 0.00 0.00 0.00 0.00 0.00 0.00 0.00 0.00 0.00 0.00 0.00 0.00 0.00 0.01 0.00 0.00 0.00 0.00 0.00 0.00 0.00 0.00 0.00
0.00 0.00 0.00 0.00 0.00 0.00 0.00 0.00 0.00 0.00 0.00 0.00 0.00 0.00 0.00 0.00 0.00 0.00 0.00 0.00 0.00 0.00 0.00 0.00 0.00 0.00 0.00 0.00 0.00 0.00 0.02 0.01 0.00 0.00 0.00 0.05 0.01 0.00 0.00 0.00 0.00 0.00 0.00 0.00 0.00
0.00 0.00 0.00 0.00 0.00 0.00 0.00 0.00 0.00 0.00 0.00 0.00 0.00 0.00 0.00 0.00 0.00 0.00 0.00 0.00 0.00 0.00 0.00 0.00 0.00 0.00 0.00 0.00 0.03 0.02 0.04 0.00 0.00 0.00 0.00 0.00 0.00 0.00 0.00 0.00 0.00 0.00 0.00 0.00 0.00
0.00 0.00 0.00 0.00 0.00 0.00 0.00 0.00 0.00 0.00 0.00 0.00 0.00 0.00 0.00 0.00 0.00 0.00 0.00 0.00 0.00 0.00 0.00 0.00 0.00 0.00 0.00 0.00 0.41 0.23 0.05 0.00 0.00 0.00 0.00 0.00 0.00 0.00 0.00 0.00 0.00 0.00 0.00 0.00 0.00
0.00 0.00 0.00 0.00 0.00 0.00 0.00 0.00 0.00 0.00 0.00 0.00 0.00 0.00 0.00 0.00 0.00 0.00 0.00 0.00 0.00 0.00 0.00 0.00 0.00 0.00 0.00 0.00 0.04 0.01 0.01 0.00 0.00 0.00 0.00 0.00 0.00 0.00 0.00 0.00 0.00 0.00 0.00 0.00 0.00
0.00 0.00 0.00 0.00 0.00 0.00 0.00 0.00 0.00 0.00 0.00 0.00 0.00 0.00 0.00 0.00 0.00 0.00 0.00 0.00 0.00 0.00 0.00 0.00 0.00 0.00 0.00 0.00 0.00 0.00 0.00 0.00 0.00 0.00 0.00 0.01 0.00 0.00 0.00 0.00 0.00 0.00 0.00 0.00 0.00
0.00 0.00 0.00 0.00 0.00 0.00 0.00 0.00 0.00 0.00 0.00 0.00 0.00 0.00 0.00 0.00 0.00 0.00 0.00 0.00 0.00 0.00 0.00 0.00 0.00 0.00 0.00 0.00 0.00 0.00 0.00 0.00 0.00 0.00 0.00 0.00 0.00 0.01 0.11 0.00 0.00 0.00 0.00 0.00 0.00
0.00 0.00 0.00 0.00 0.00 0.00 0.00 0.00 0.00 0.00 0.00 0.00 0.00 0.00 0.00 0.00 0.00 0.00 0.00 0.00 0.00 0.00 0.00 0.00 0.00 0.00 0.00 0.00 0.00 0.00 0.00 0.00 0.00 0.00 0.00 0.00 0.00 0.02 0.05 0.01 0.00 0.00 0.00 0.00 0.00
0.00 0.00 0.00 0.00 0.00 0.00 0.00 0.00 0.00 0.00 0.00 0.00 0.00 0.00 0.00 0.00 0.00 0.00 0.00 0.00 0.00 0.00 0.00 0.00 0.00 0.00 0.00 0.00 0.00 0.00 0.00 0.00 0.00 0.00 0.00 0.00 0.00 0.00 0.01 0.03 0.01 0.00 0.00 0.00 0.00
0.00 0.00 0.00 0.00 0.00 0.00 0.00 0.00 0.00 0.00 0.00 0.00 0.00 0.00 0.00 0.00 0.00 0.00 0.00 0.00 0.00 0.00 0.00 0.00 0.00 0.00 0.00 0.00 0.00 0.00 0.00 0.00 0.00 0.00 0.00 0.00 0.00 0.00 0.06 0.20 0.09 0.03 0.00 0.00 0.00
0.00 0.00 0.00 0.00 0.00 0.00 0.00 0.00 0.00 0.00 0.00 0.00 0.00 0.00 0.00 0.00 0.00 0.00 0.00 0.00 0.00 0.00 0.00 0.00 0.00 0.00 0.00 0.00 0.00 0.00 0.00 0.00 0.00 0.00 0.00 0.00 0.00 0.00 0.04 0.02 0.01 0.01 0.00 0.00 0.00
0.00 0.00 0.00 0.00 0.00 0.00 0.00 0.00 0.00 0.00 0.00 0.00 0.00 0.00 0.00 0.00 0.00 0.00 0.00 0.00 0.00 0.00 0.00 0.00 0.00 0.00 0.00 0.00 0.00 0.00 0.00 0.00 0.00 0.00 0.00 0.00 0.00 0.00 0.00 0.00 0.00 0.00 0.00 0.00 0.00
0.00 0.00 0.00 0.00 0.00 0.00 0.00 0.00 0.00 0.00 0.00 0.00 0.00 0.00 0.00 0.00 0.00 0.00 0.00 0.00 0.00 0.00 0.00 0.00 0.00 0.00 0.00 0.00 0.00 0.00 0.00 0.00 0.00 0.00 0.00 0.00 0.00 0.00 0.00 0.00 0.00 0.00 0.00 0.00 0.00
0.00 0.00 0.00 0.00 0.00 0.00 0.00 0.00 0.00 0.00 0.00 0.00 0.00 0.00 0.00 0.00 0.00 0.00 0.00 0.00 0.00 0.00 0.00 0.00 0.00 0.00 0.00 0.00 0.00 0.00 0.00 0.00 0.00 0.00 0.00 0.00 0.00 0.00 0.00 0.00 0.00 0.00 0.00 0.00 0.00
0.00 0.00 0.00 0.00 0.00 0.00 0.00 0.00 0.00 0.00 0.00 0.00 0.00 0.00 0.00 0.00 0.00 0.00 0.00 0.00 0.00 0.00 0.00 0.00 0.00 0.00 0.00 0.00 0.00 0.00 0.00 0.00 0.00 0.00 0.00 0.00 0.00 0.00 0.00 0.00 0.00 0.00 0.00 0.00 0.00
0.00 0.00 0.00 0.00 0.00 0.00 0.00 0.00 0.00 0.00 0.00 0.00 0.00 0.00 0.00 0.00 0.00 0.00 0.00 0.00 0.00 0.00 0.00 0.00 0.00 0.00 0.00 0.00 0.00 0.00 0.00 0.00 0.00 0.00 0.00 0.00 0.00 0.00 0.00 0.00 0.00 0.00 0.00 0.00 0.00
0.00 0.00 0.00 0.00 0.00 0.00 0.00 0.00 0.00 0.00 0.00 0.00 0.00 0.00 0.00 0.00 0.00 0.00 0.00 0.00 0.00 0.00 0.00 0.00 0.00 0.00 0.00 0.00 0.00 0.00 0.00 0.00 0.00 0.00 0.00 0.00 0.00 0.00 0.00 0.00 0.00 0.00 0.00 0.00 0.00
0.00 0.00 0.00 0.00 0.00 0.00 0.00 0.00 0.00 0.00 0.00 0.00 0.00 0.00 0.00 0.00 0.00 0.00 0.00 0.00 0.00 0.00 0.00 0.00 0.00 0.00 0.00 0.00 0.00 0.00 0.00 0.00 0.00 0.00 0.00 0.00 0.00 0.00 0.00 0.00 0.00 0.00 0.00 0.00 0.00
0.00 0.00 0.00 0.00 0.00 0.00 0.00 0.00 0.00 0.00 0.00 0.00 0.00 0.00 0.00 0.00 0.00 0.00 0.00 0.00 0.00 0.00 0.00 0.00 0.00 0.00 0.00 0.00 0.00 0.00 0.00 0.00 0.00 0.00 0.00 0.00 0.00 0.00 0.00 0.00 0.00 0.00 0.00 0.00 0.00
0.00 0.00 0.00 0.00 0.00 0.00 0.00 0.00 0.00 0.00 0.00 0.00 0.00 0.00 0.00 0.00 0.00 0.00 0.00 0.00 0.00 0.00 0.00 0.00 0.00 0.00 0.00 0.00 0.00 0.00 0.00 0.00 0.00 0.00 0.00 0.00 0.00 0.00 0.00 0.01 0.00 0.00 0.00 0.00 0.00
0.00 0.00 0.00 0.00 0.00 0.00 0.00 0.00 0.00 0.00 0.00 0.00 0.00 0.00 0.00 0.00 0.00 0.00 0.00 0.00 0.00 0.00 0.00 0.00 0.00 0.00 0.00 0.00 0.00 0.00 0.00 0.00 0.00 0.00 0.00 0.00 0.00 0.00 0.00 0.00 0.00 0.00 0.00 0.00 0.00
MSLP
1016.89 1016.49 1016.01 1015.49 1014.91 1014.27 1013.64 1013.03 1012.38 1011.96 1011.77 1011.24 1010.38 1009.76 1009.46 1009.06 1007.58 1006.20 1004.88 1003.89 1003.91 1003.50 1003.89 1002.75 1001.92 1000.48 999.25 1001.66 1004.02 1002.30 1000.70 1001.08 1001.26 1001.95 1002.20 1002.70 1003.13 1003.75 1004.43 1005.16 1005.62 1006.37 1008.26 1009.67 1010.82
1016.94 1016.37 1015.90 1015.38 1014.87 1014.31 1013.56 1012.91 1012.28 1011.74 1011.27 1011.00 1010.40 1009.73 1009.42 1009.02 1007.33 1004.96 1003.85 1003.59 1003.51 1003.54 1003.76 1002.31 1001.26 1001.48 1003.24 1002.49 1002.17 1002.02 1001.41 1001.09 1001.14 1001.60 1001.90 1002.73 1003.40 1003.90 1004.33 1004.90 1005.60 1006.65 1008.18 1009.66 1010.35
1017.07 1016.51 1015.93 1015.36 1014.66 1014.08 1013.52 1012.84 1012.14 1011.52 1011.04 1010.58 1010.25 1009.74 1009.38 1009.02 1006.30 1003.01 1003.59 1003.62 1003.46 1003.40 1003.33 1002.13 1001.08 1002.42 1001.68 1000.40 1001.48 1001.42 1001.49 1001.34 1001.12 1001.26 1001.74 1002.65 1002.98 1003.26 1003.97 1004.61 1005.29 1006.66 1008.18 1009.39 1010.00
1017.13 1016.56 1015.92 1015.32 1014.68 1013.97 1013.21 1012.60 1011.94 1011.34 1010.74 1010.34 1009.95 1009.67 1009.29 1008.11 1004.66 1003.04 1003.45 1003.55 1003.57 1003.24 1002.73 1001.62 1000.11 1000.53 1000.58 1000.73 1001.43 1000.90 1001.16 1001.38 1001.47 1001.42 1001.46 1001.96 1002.35 1003.20 1003.39 1004.01 1005.21 1006.74 1008.16 1008.99 1009.56
1017.10 1016.53 1015.92 1015.29 1014.63 1013.88 1013.07 1012.31 1011.66 1011.16 1010.55 1010.08 1009.68 1009.58 1008.68 1006.31 1002.96 1002.58 1003.22 1003.34 1003.16 1002.98 1001.91 1000.37 999.05 998.64 999.68 1001.68 1002.72 1001.12 1000.75 1001.19 1001.48 1001.35 1001.83 1001.69 1002.11 1003.07 1003.68 1004.40 1005.40 1006.81 1008.03 1008.67 1009.04
1017.14 1016.52 1015.83 1015.10 1014.43 1013.71 1013.04 1012.23 1011.43 1010.84 1010.33 1009.81 1009.63 1009.62 1008.11 1004.34 1001.84 1001.72 1002.15 1002.52 1002.25 1001.96 1001.08 999.78 998.86 998.58 999.73 1001.37 1002.06 1000.47 1000.48 1001.01 1001.03 1001.22 1001.53 1001.97 1002.58 1003.26 1004.17 1004.98 1005.88 1006.93 1007.82 1008.36 1008.60
1017.26 1016.54 1015.84 1014.98 1014.15 1013.35 1012.68 1011.99 1011.20 1010.55 1010.02 1009.55 1009.52 1009.02 1006.10 1002.92 1001.78 1001.66 1001.73 1001.44 1001.31 1000.95 1000.18 999.42 999.11 998.97 998.64 1000.84 1000.14 1000.02 1000.50 1000.75 1000.88 1001.14 1002.46 1003.35 1003.55 1003.51 1004.33 1005.20 1006.18 1006.98 1007.51 1007.90 1008.15
1017.31 1016.51 1015.73 1014.84 1013.89 1012.93 1012.12 1011.56 1010.82 1010.08 1009.59 1009.33 1009.37 1008.33 1004.20 1001.56 1001.64 1001.82 1001.50 1001.02 1000.69 1000.40 1000.36 999.73 999.51 999.37 998.62 999.57 1000.06 999.99 1000.46 1001.46 1000.44 1000.88 1003.58 1004.93 1003.59 1003.88 1004.40 1005.11 1005.93 1006.62 1007.14 1007.56 1007.73
1017.44 1016.64 1015.77 1014.75 1013.68 1012.64 1011.60 1010.74 1010.05 1009.44 1009.12 1009.08 1008.59 1006.61 1002.69 1002.16 1001.61 1001.18 1001.21 1000.68 1000.39 1000.49 1000.32 1000.04 1000.01 999.74 999.12 1000.08 1002.90 1004.05 1004.45 1001.23 1000.47 1000.41 1001.56 1002.36 1002.67 1003.44 1004.08 1004.78 1005.50 1006.13 1006.62 1007.12 1007.54
1017.40 1016.57 1015.69 1014.68 1013.52 1012.59 1011.32 1009.27 1008.66 1008.88 1008.34 1008.01 1006.70 1005.28 1002.06 1000.52 1000.04 1000.31 1000.63 1000.54 999.99 1000.06 1000.05 999.90 999.81 999.70 999.35 1000.90 1006.58 1006.93 1005.26 1001.05 1000.19 1000.18 1000.06 1000.26 1001.50 1002.69 1003.53 1004.21 1005.12 1005.70 1006.24 1006.76 1007.15
1017.39 1016.54 1015.61 1014.52 1013.34 1012.66 1011.48 1008.49 1008.11 1008.16 1006.55 1004.46 1003.19 1002.04 1000.76 1000.55 1000.79 1001.03 1000.54 1000.68 1000.20 999.92 999.57 999.38 999.27 999.00 998.94 1000.64 1001.62 1004.35 1003.10 1000.35 999.76 999.61 999.63 999.83 1000.80 1002.17 1002.97 1003.70 1004.43 1005.07 1005.78 1006.25 1006.66
1017.29 1016.45 1015.46 1014.32 1013.10 1011.97 1011.91 1008.58 1007.41 1007.04 1005.07 1003.05 1001.77 1001.09 1000.47 1000.52 1000.49 1000.30 1000.48 1000.50 1000.12 999.56 999.36 999.14 998.23 998.48 998.44 999.74 1000.70 1001.74 1000.14 1000.10 999.30 999.25 999.41 999.82 1000.10 1001.92 1003.26 1003.83 1004.09 1004.54 1005.21 1005.77 1006.23
1017.25 1016.34 1015.37 1014.01 1012.70 1011.17 1008.86 1007.41 1007.00 1006.26 1004.63 1001.28 1000.36 1000.06 1000.01 1000.35 1000.12 999.23 999.91 999.97 999.57 999.39 998.76 998.34 997.58 997.75 997.89 997.98 998.20 998.44 998.35 998.88 999.24 998.59 998.49 998.96 1000.43 1002.42 1006.63 1004.45 1003.86 1003.89 1004.51 1005.21 1005.70
1017.16 1016.32 1015.44 1014.16 1012.37 1009.60 1007.44 1006.92 1006.48 1006.20 1004.05 999.95 999.50 999.24 999.60 999.76 999.62 999.15 999.10 999.66 999.36 998.81 998.44 997.89 997.44 996.79 997.21 997.24 997.26 996.86 996.95 997.24 997.30 997.99 998.06 998.86 1000.50 1003.50 1004.73 1003.88 1003.92 1003.56 1003.72 1004.29 1005.08
1016.92 1016.22 1015.43 1015.72 1013.35 1009.36 1007.30 1006.90 1006.69 1005.92 1002.30 999.34 998.82 999.34 998.80 999.42 998.30 998.76 998.64 999.41 998.94 998.46 998.43 997.52 997.05 996.78 996.78 996.61 996.66 996.57 996.30 996.87 997.05 997.45 997.95 998.44 999.63 1003.18 1003.58 1003.80 1004.31 1003.48 1003.18 1003.32 1003.92
1016.68 1016.16 1015.76 1012.22 1012.71 1009.29 1007.76 1007.03 1006.31 1004.69 1000.00 998.05 998.30 998.53 998.77 998.85 998.10 998.18 998.86 999.29 998.94 998.55 998.18 997.57 996.89 996.99 996.93 996.91 996.86 996.91 996.84 996.86 997.29 997.58 997.64 997.98 999.02 1003.22 1004.73 1004.32 1005.12 1004.54 1003.48 1002.43 1002.75
1016.22 1015.50 1015.96 1013.96 1009.92 1008.53 1008.01 1006.87 1004.94 1001.73 998.21 997.39 997.14 997.64 998.06 997.99 998.16 998.11 998.70 998.85 998.56 998.45 997.94 997.84 997.13 997.18 997.29 997.31 997.17 997.24 997.12 996.98 997.01 997.02 996.89 997.05 999.11 1002.35 1002.82 1003.02 1002.48 1002.39 1001.60 1001.32 1001.72
1015.34 1014.26 1012.38 1011.40 1009.09 1008.67 1007.88 1006.31 1003.36 999.59 997.41 997.20 997.51 997.09 997.26 996.98 997.52 997.55 998.20 998.26 998.42 998.04 997.51 997.08 996.88 997.09 997.10 997.39 997.06 996.98 996.88 996.84 996.65 996.28 996.12 997.34 999.88 1002.02 1003.67 1001.58 1000.73 1000.82 1000.04 1000.07 1000.91
1014.60 1011.07 1009.96 1008.63 1009.26 1008.76 1007.43 1004.63 1001.48 998.89 997.72 997.24 997.00 997.08 996.64 996.58 996.82 996.86 997.36 997.42 997.44 997.75 997.21 996.25 995.82 995.56 996.22 996.65 997.32 996.69 996.40 996.83 996.61 996.32 996.32 997.31 998.63 999.14 1000.14 999.36 998.25 997.80 998.22 999.12 999.95
1014.60 1010.76 1007.36 1006.52 1007.51 1007.81 1006.46 1003.46 1000.65 999.32 998.76 998.47 997.68 996.67 996.16 995.98 996.53 996.43 996.26 996.47 996.45 996.64 996.94 996.17 995.59 994.68 995.26 996.20 996.59 996.66 996.23 996.32 996.58 996.74 996.50 997.04 998.03 997.79 998.46 997.60 996.73 997.26 997.62 998.41 999.28
1013.83 1009.16 1006.12 1006.53 1007.13 1006.80 1004.69 1002.40 1000.53 999.37 999.48 999.29 998.12 997.06 996.45 995.95 995.87 995.94 995.62 995.74 995.91 995.88 996.27 996.45 995.95 995.35 995.10 995.76 996.10 996.41 996.34 996.24 995.94 995.98 995.94 995.89 996.36 996.43 996.81 996.22 995.87 996.54 996.81 997.54 998.28
1012.07 1007.72 1006.16 1006.49 1006.41 1005.16 1003.62 1002.12 1000.62 999.60 999.50 999.58 998.85 998.13 997.15 996.26 995.87 995.73 995.37 995.05 995.08 995.81 995.88 996.34 996.17 995.47 995.00 995.27 995.77 995.81 995.75 996.16 995.74 995.76 995.28 995.18 995.90 995.08 995.59 995.81 995.88 996.33 996.74 997.14 997.23
1012.23 1007.59 1005.62 1006.05 1004.97 1003.67 1002.40 1001.49 1000.16 1000.12 999.77 999.26 999.06 998.52 997.66 997.23 996.74 996.25 995.57 995.10 995.51 996.16 995.97 996.01 996.44 995.69 994.91 994.78 995.21 995.60 995.50 995.17 995.33 994.90 995.03 994.90 995.05 995.49 995.46 995.83 996.21 996.33 997.04 997.60 997.87
1013.01 1007.56 1005.35 1005.49 1004.82 1003.64 1001.89 1000.58 1000.16 1000.19 1000.08 999.35 999.00 998.62 998.22 997.80 997.28 996.66 995.62 995.37 995.93 996.40 996.72 996.20 995.96 995.84 994.76 994.21 993.96 994.78 995.13 995.10 994.92 994.60 994.41 994.41 994.60 995.12 995.28 995.95 996.82 997.21 997.91 998.63 998.82
1012.80 1007.55 1005.79 1004.33 1003.89 1003.41 1002.31 1000.95 999.90 999.68 999.93 999.99 999.69 999.41 998.96 998.15 997.17 996.59 996.17 995.51 996.12 996.76 996.80 996.68 996.14 995.70 994.92 994.47 993.95 993.78 994.24 994.76 995.04 994.66 994.36 994.42 995.25 996.28 995.55 996.77 997.38 997.73 998.67 999.31 999.42
1012.24 1009.77 1008.14 1006.74 1004.85 1003.34 1002.07 1001.57 1000.62 999.76 999.64 999.59 999.62 998.99 998.79 998.22 997.90 997.99 997.07 996.07 996.02 996.30 996.56 996.55 996.25 995.96 995.29 994.62 994.20 994.07 993.80 993.72 994.10 994.57 994.41 994.61 995.26 995.92 997.50 997.26 997.55 998.36 998.92 999.60 999.94
1012.71 1011.72 1010.38 1007.60 1005.41 1004.06 1002.59 1001.85 1001.40 1000.76 999.95 999.79 999.37 999.02 998.51 998.96 999.51 999.14 998.30 997.88 997.30 996.46 995.86 996.10 996.05 995.90 995.48 994.89 994.27 994.31 993.94 993.58 993.34 993.79 994.22 994.50 995.26 996.11 997.47 997.69 997.75 998.09 998.96 999.68 1000.21
Thickness
5791 5795 5800 5806 5811 5818 5823 5829 5834 5838 5839 5843 5850 5854 5856 5859 5871 5884 5880 5897 5899 5903 5899 5901 5901 5903 5893 5864 5847 5868 5861 5832 5833 5826 5829 5849 5837 5850 5853 5835 5838 5839 5821 5819 5817
5788 5793 5798 5804 5809 5815 5822 5829 5834 5839 5844 5846 5851 5856 5858 5861 5874 5881 5902 5905 5906 5906 5895 5893 5885 5881 5841 5857 5866 5869 5850 5844 5859 5854 5844 5846 5840 5840 5837 5832 5830 5829 5830 5824 5822
5784 5790 5795 5801 5808 5814 5820 5827 5834 5840 5844 5849 5851 5856 5859 5862 5872 5893 5906 5906 5908 5909 5903 5903 5902 5869 5854 5898 5880 5877 5848 5863 5864 5868 5864 5848 5845 5855 5837 5823 5835 5823 5821 5820 5819
5781 5786 5792 5798 5804 5811 5819 5825 5832 5839 5845 5849 5852 5855 5859 5868 5849 5902 5907 5907 5908 5912 5905 5900 5900 5872 5870 5878 5885 5865 5876 5871 5868 5872 5867 5854 5862 5847 5850 5844 5851 5840 5831 5825 5819
5778 5783 5789 5795 5801 5808 5817 5824 5831 5837 5843 5848 5852 5853 5864 5865 5881 5914 5910 5909 5911 5907 5901 5904 5901 5910 5880 5860 5850 5869 5878 5878 5875 5875 5868 5872 5858 5850 5848 5857 5855 5844 5833 5826 5825
5773 5779 5786 5792 5799 5806 5813 5821 5829 5836 5842 5847 5850 5851 5859 5852 5917 5922 5920 5913 5910 5907 5906 5914 5908 5919 5891 5864 5853 5886 5884 5875 5879 5875 5876 5863 5858 5855 5851 5857 5846 5839 5830 5830 5829
5768 5775 5781 5789 5796 5804 5811 5818 5827 5834 5840 5845 5847 5853 5862 5872 5916 5921 5919 5914 5918 5915 5905 5922 5924 5906 5914 5868 5902 5896 5868 5873 5875 5878 5862 5862 5840 5841 5856 5854 5840 5835 5834 5834 5835
5763 5770 5778 5785 5793 5803 5811 5817 5825 5832 5837 5841 5843 5851 5857 5914 5916 5909 5915 5912 5923 5925 5917 5927 5926 5908 5908 5912 5896 5879 5860 5822 5874 5878 5851 5831 5818 5851 5860 5850 5839 5838 5837 5835 5838
5758 5765 5773 5782 5791 5801 5811 5819 5825 5831 5835 5837 5843 5851 5855 5905 5891 5908 5912 5900 5911 5914 5918 5923 5912 5893 5903 5879 5815 5824 5794 5849 5861 5886 5869 5857 5841 5857 5865 5854 5842 5842 5841 5839 5838
5754 5761 5769 5778 5789 5797 5808 5826 5830 5830 5837 5840 5849 5838 5870 5874 5900 5907 5913 5909 5901 5900 5894 5895 5889 5873 5884 5859 5752 5766 5779 5868 5858 5875 5880 5869 5857 5863 5866 5859 5848 5847 5845 5842 5841
5750 5758 5766 5775 5786 5793 5804 5827 5829 5822 5834 5841 5851 5854 5871 5888 5899 5884 5901 5891 5894 5887 5863 5884 5862 5853 5877 5858 5847 5827 5822 5868 5877 5888 5877 5874 5865 5864 5871 5865 5856 5853 5848 5846 5844
5747 5755 5763 5773 5784 5795 5796 5818 5820 5825 5815 5853 5862 5864 5877 5883 5858 5875 5896 5866 5868 5856 5873 5864 5856 5882 5898 5882 5866 5852 5873 5849 5880 5888 5878 5861 5868 5872 5871 5866 5864 5858 5853 5850 5849
5743 5752 5760 5772 5784 5798 5816 5820 5833 5836 5812 5846 5864 5860 5864 5870 5852 5866 5880 5871 5861 5853 5863 5855 5876 5896 5889 5891 5889 5891 5884 5864 5849 5886 5893 5883 5860 5853 5800 5866 5873 5873 5867 5860 5854
5741 5749 5757 5768 5782 5805 5811 5826 5832 5833 5793 5834 5846 5859 5865 5865 5845 5881 5889 5869 5859 5851 5864 5866 5889 5892 5881 5878 5894 5878 5910 5900 5893 5870 5848 5887 5832 5827 5833 5857 5864 5871 5870 5865 5859
5741 5748 5755 5752 5772 5795 5813 5822 5825 5820 5766 5838 5850 5879 5872 5847 5862 5860 5890 5866 5846 5855 5861 5858 5872 5875 5869 5881 5899 5881 5913 5894 5890 5876 5871 5875 5858 5831 5854 5847 5848 5866 5872 5874 5870
5741 5746 5750 5776 5772 5797 5812 5818 5814 5777 5779 5832 5851 5843 5839 5846 5855 5863 5859 5870 5871 5854 5862 5865 5898 5884 5880 5890 5892 5899 5889 5890 5884 5872 5839 5875 5873 5818 5819 5831 5817 5840 5861 5880 5879
5742 5748 5745 5758 5784 5802 5807 5801 5774 5774 5851 5837 5839 5846 5838 5834 5837 5843 5834 5830 5826 5814 5823 5849 5860 5878 5884 5863 5882 5879 5867 5836 5832 5836 5837 5897 5855 5828 5836 5845 5851 5850 5870 5888 5888
5745 5755 5770 5776 5794 5798 5796 5779 5759 5819 5842 5857 5844 5847 5829 5846 5838 5839 5828 5820 5840 5840 5833 5824 5818 5859 5879 5863 5859 5865 5868 5840 5810 5830 5858 5884 5803 5821 5837 5869 5873 5873 5888 5898 5890
5747 5776 5781 5794 5789 5792 5778 5766 5788 5824 5846 5837 5845 5825 5832 5846 5844 5841 5830 5828 5841 5846 5824 5836 5841 5888 5882 5882 5872 5862 5854 5883 5859 5873 5860 5858 5862 5875 5868 5881 5897 5904 5903 5897 5893
5740 5766 5790 5807 5798 5786 5769 5768 5805 5830 5832 5829 5810 5839 5826 5841 5831 5837 5838 5851 5847 5860 5865 5855 5835 5885 5883 5884 5880 5868 5892 5854 5857 5815 5817 5843 5842 5847 5855 5881 5903 5897 5898 5897 5898
5741 5764 5798 5801 5794 5772 5763 5785 5810 5834 5828 5812 5817 5827 5837 5839 5845 5837 5844 5858 5862 5862 5868 5858 5852 5857 5879 5854 5849 5856 5853 5864 5873 5868 5838 5836 5848 5888 5886 5903 5906 5901 5909 5903 5902
5746 5754 5794 5794 5759 5772 5772 5792 5804 5817 5827 5816 5825 5824 5827 5844 5841 5841 5840 5857 5879 5866 5845 5858 5848 5835 5854 5882 5883 5875 5867 5865 5846 5841 5868 5866 5853 5912 5902 5906 5910 5905 5910 5905 5915
5732 5759 5791 5783 5751 5766 5789 5793 5811 5805 5809 5813 5811 5825 5837 5827 5819 5836 5848 5875 5870 5855 5847 5860 5832 5820 5838 5868 5877 5856 5870 5883 5881 5886 5859 5849 5861 5906 5910 5902 5906 5905 5903 5906 5910
5720 5744 5767 5769 5771 5768 5778 5790 5790 5810 5804 5816 5815 5824 5820 5817 5833 5826 5844 5863 5862 5856 5848 5860 5845 5832 5826 5852 5876 5850 5860 5872 5873 5857 5865 5872 5881 5882 5896 5889 5891 5894 5896 5896 5899
5714 5741 5758 5754 5759 5765 5776 5785 5787 5787 5805 5807 5800 5804 5806 5803 5822 5830 5844 5856 5853 5839 5848 5845 5823 5845 5858 5869 5876 5873 5865 5862 5852 5867 5858 5876 5865 5872 5893 5879 5886 5891 5890 5887 5892
5701 5714 5731 5733 5755 5762 5766 5767 5775 5790 5795 5791 5791 5808 5814 5808 5817 5801 5827 5846 5837 5847 5840 5848 5821 5839 5837 5864 5868 5857 5872 5877 5870 5867 5873 5879 5872 5885 5873 5874 5878 5882 5883 5880 5884
5696 5702 5704 5718 5739 5744 5755 5763 5767 5782 5794 5800 5802 5804 5809 5806 5807 5819 5831 5834 5836 5834 5842 5837 5830 5827 5815 5852 5858 5833 5858 5869 5878 5883 5878 5861 5878 5884 5863 5866 5874 5881 5881 5879 5881